Mitchell, SD

9:48 AM CST on December 13, 2019 (GMT -0600)
Mitchell Municipal

Weather History for KMHE - November, 2019

Change the Weather History Date:

Monday, November 18, 2019

  Actual Average Record
Temperature  
Mean Temperature 47 °F 32 °F  
Max Temperature 56 °F 43 °F 77 °F (1904)
Min Temperature 37 °F 23 °F -1 °F (1927)
Degree Days  
Heating Degree Days 18 32  
Month to date heating degree days 567 492  
Since 1 July heating degree days 1246 1133  
Cooling Degree Days 0 0  
Month to date cooling degree days 0 0  
Year to date cooling degree days 937 824  
Moisture  
Dew Point 39 °F    
Average Humidity 73    
Maximum Humidity 85    
Minimum Humidity 61    
Precipitation  
Precipitation T in 0.01 in 0.61 in (1948)
Month to date precipitation 0.12 0.56  
Year to date precipitation 34.12 20.85  
Snow  
Snow 0.00 in - 6.00 in (1948)
Month to date snowfall 0.6  
Since 1 July snowfall 0.6  
Since 1 September snowfall 0.6  
Snow Depth 0.00 in    
Sea Level Pressure  
Sea Level Pressure 29.72 in    
Wind  
Wind Speed 11 mph (West)    
Max Wind Speed 24 mph    
Max Gust Speed 33 mph    
Visibility 10 miles    
Events Rain    
T = Trace of Precipitation, MM = Missing Value Source: NWS Daily Summary

Daily Weather History Graph

Daily Weather History Graph

Search for Another Location

Airport or City:

Astronomy

Nov. 18, 2019 Rise Set
Actual Time 7:30 AM CST 5:03 PM CST
Civil Twilight 6:58 AM CST 5:35 PM CST
Nautical Twilight 6:23 AM CST 6:10 PM CST
Astronomical Twilight 5:49 AM CST 6:44 PM CST
Moon 10:50 PM CST (11/18) 1:03 PM CST (11/18)
Length of Visible Light 10h 36m
Length of Day
9h 33m
Waning Gibbous, 63% of the Moon is Illuminated
Nov 18
Waning Gibbous
Nov 19
Last Quarter
Nov 26
New
Dec 4
First Quarter
Dec 11
Full

Hourly Weather History & Observations

Time (CST) Temp. Windchill Dew Point Humidity Pressure Visibility Wind Dir Wind Speed Gust Speed Precip Events Conditions
12:53 AM 37.0 °F 29.8 °F 33.1 °F 86% 29.76 in 10.0 mi SSE 10.4 mph - N/A   Scattered Clouds
1:53 AM 37.9 °F 32.1 °F 33.1 °F 83% 29.74 in 10.0 mi SSE 8.1 mph - N/A   Mostly Cloudy
2:53 AM 39.0 °F 31.8 °F 33.1 °F 79% 29.74 in 10.0 mi South 11.5 mph - 0.00 in Rain Light Rain
3:53 AM 37.9 °F 32.7 °F 33.1 °F 83% 29.71 in 10.0 mi South 6.9 mph - 0.00 in   Overcast
4:53 AM 37.9 °F 33.5 °F 34.0 °F 86% 29.70 in 10.0 mi South 5.8 mph - 0.00 in Rain Light Rain
5:53 AM 39.0 °F 35.7 °F 34.0 °F 82% 29.70 in 10.0 mi SSE 4.6 mph - 0.00 in   Overcast
6:53 AM 39.0 °F 34.8 °F 35.1 °F 86% 29.71 in 10.0 mi SSW 5.8 mph - N/A   Overcast
7:53 AM 39.0 °F 34.8 °F 36.0 °F 89% 29.70 in 10.0 mi SSW 5.8 mph - 0.00 in   Mostly Cloudy
8:53 AM 45.0 °F 40.6 °F 39.0 °F 80% 29.69 in 10.0 mi WSW 8.1 mph - N/A   Mostly Cloudy
9:53 AM 52.0 °F - 44.1 °F 74% 29.67 in 10.0 mi WNW 13.8 mph - N/A   Overcast
10:53 AM 54.0 °F - 44.1 °F 69% 29.66 in 10.0 mi WNW 10.4 mph - 0.00 in   Overcast
11:53 AM 55.9 °F - 45.0 °F 67% 29.65 in 10.0 mi WNW 18.4 mph 28.8 mph N/A   Overcast
12:20 PM 55.9 °F - 45.0 °F 67% 29.63 in 10.0 mi NW 17.3 mph 27.6 mph N/A   Overcast
12:53 PM 55.0 °F - 44.1 °F 67% 29.66 in 10.0 mi NNW 17.3 mph - 0.00 in Rain Light Rain
1:53 PM 53.1 °F - 45.0 °F 74% 29.67 in 10.0 mi NW 17.3 mph 27.6 mph 0.00 in   Overcast
2:03 PM 53.1 °F - 45.0 °F 74% 29.65 in 10.0 mi NW 12.7 mph 23.0 mph N/A   Overcast
2:48 PM 53.6 °F - 44.6 °F 72% 29.66 in 10.0 mi NNW 16.1 mph - N/A   Mostly Cloudy
2:53 PM 54.0 °F - 44.1 °F 69% 29.68 in 10.0 mi NNW 15.0 mph - N/A   Overcast
3:53 PM 55.0 °F - 43.0 °F 64% 29.71 in 10.0 mi NNW 16.1 mph - N/A   Overcast
4:53 PM 52.0 °F - 43.0 °F 71% 29.74 in 10.0 mi NNW 15.0 mph - N/A   Overcast
5:53 PM 50.0 °F - 42.1 °F 74% 29.76 in 10.0 mi North - - N/A   Overcast
6:53 PM 46.9 °F - 41.0 °F 80% 29.80 in 10.0 mi NW 8.1 mph - N/A   Overcast
7:53 PM 45.0 °F 39.3 °F 39.0 °F 80% 29.81 in 10.0 mi WNW 11.5 mph - N/A   Clear
8:53 PM 43.0 °F 37.2 °F 37.0 °F 80% 29.82 in 10.0 mi WNW 10.4 mph - N/A   Clear
9:53 PM 42.1 °F 37.1 °F 36.0 °F 79% 29.81 in 10.0 mi West 8.1 mph - N/A   Clear
10:53 PM 42.1 °F 35.7 °F 35.1 °F 76% 29.79 in 10.0 mi WNW 11.5 mph - N/A   Clear
11:53 PM 39.9 °F 33.9 °F 34.0 °F 79% 29.80 in 10.0 mi West 9.2 mph - N/A   Clear